Tracking 28790 objects as of 19-Apr-2024
HD Live streaming from Space Station
objects crossing your sky now

FENGYUN 1C DEB

Track FENGYUN 1C DEB now!
10-day predictions


NORAD ID: 30224
Int'l Code: 1999-025WH
Perigee: 856.4 km
Apogee: 1,022.6 km
Inclination: 99.5 °
Period: 103.7 minutes
Semi major axis: 7310 km
RCS: 0.0474 m2 (small)
Launch date: May 10, 1999
Source: People's Republic of China (PRC)
Launch site: Taiyaun Space Center, China (TSC)

Note: This is SATELLITE DEBRIS
Your satellite tracking list
Your tracking list is empty




NASA's NSSDC Master Catalog

Two Line Element Set (TLE):
1 30224U 99025WH  24110.03998850  .00000947  00000-0  77901-3 0  9993
2 30224  99.5416 129.6408 0113625 152.5433 265.2870 13.88938837873857
Source of the keplerian elements: AFSPC